Location: Unspecified
(0.0000°N, 0.0000°E)
Time: 12:23:17
(UTC+00:00)

N. Korean satellite - Pass Details

Date: 29 November 2021
Orbit: 446 x 495 km, 97.3° (Epoch: 07 December)

Event Time Altitude Azimuth Distance (km) Brightness Sun altitude
Rises 04:17:44 0° 33° (NNE) 2,430 10.2 -21.0°
Reaches altitude 10° 04:20:04 10° 50° (NE) 1,565 9.5 -20.4°
Maximum altitude 04:22:40 21° 101° (E) 1,054 9.1 -19.8°
Drops below altitude 10° 04:25:19 10° 153° (SSE) 1,582 9.9 -19.2°
Sets 04:27:41 0° 169° (SSE) 2,464 10.6 -18.7°
